DW9005 Weather Reports


time (UTC)temp
C
wind
direction
speed
KPH
gust
KPH
rain 1hr
cm
rain 24hr
cm
rain mn
cm
humidity
%
barometer
mb
20260904181537 33 0.0 0.0 0.00 0.00 0.00 62 1015.1
20260904180019 33 0.0 0.0 0.00 0.00 0.00 65 1015.5
20260904174515 32 0.0 0.0 0.00 0.00 0.00 64 1015.7
20260904173103 32 0.0 0.0 0.00 0.00 0.00 67 1015.8
20260904171557 32 0.0 0.0 0.00 0.00 0.00 67 1016.1
20260904170039 32 0.0 0.0 0.00 0.00 0.00 70 1016.2
20260904164537 32 0.0 0.0 0.00 0.00 0.00 70 1016.4
20260904163019 32 0.0 0.0 0.00 0.00 0.00 68 1016.6
20260904161515 31 0.0 0.0 0.00 0.00 0.00 70 1016.6
20260904160100 31 0.0 0.0 0.00 0.00 0.00 72 1016.7
20260904154553 31 0.0 0.0 0.00 0.00 0.00 72 1016.7
20260904153035 31 0.0 0.0 0.00 0.00 0.00 71 1016.6
20260904151539 31 0.0 0.0 0.00 0.00 0.00 72 1016.6
20260904150015 31 0.0 0.0 0.00 0.00 0.00 75 1016.4
20260904144509 30 0.0 0.0 0.00 0.00 0.00 76 1016.4
20260904143118 30 0.0 0.0 0.00 0.00 0.00 77 1016.3
20260904141549 28 0.0 0.0 0.00 0.00 0.00 81 1016.3
20260904140044 28 0.0 0.0 0.00 0.00 0.00 83 1016.3
20260904134522 -17 0.0 0.0 0.00 0.00 0.00 1016.3
20260904133020 -17 0.0 0.0 0.00 0.00 0.00 1016.3
20260904131602 -17 0.0 0.0 0.00 0.00 0.00 1016.2
20260904130057 23 0.0 0.0 0.00 0.00 0.00 95 1016.2
20260904124536 23 0.0 0.0 0.00 0.00 0.00 95 1016.2
20260904123034 23 0.0 0.0 0.00 0.00 0.00 95 1016.0
20260904121517 23 0.0 0.0 0.00 0.00 0.00 95 1015.8
20260904120015 23 0.0 0.0 0.00 0.00 0.00 95 1015.7
20260904114557 23 0.0 0.0 0.00 0.00 0.00 95 1015.5
20260904113056 23 0.0 0.0 0.00 0.00 0.00 95 1015.4
20260904111538 23 0.0 0.0 0.00 0.00 0.00 95 1015.3
20260904110037 23 0.0 0.0 0.00 0.00 0.00 95 1015.1
20260904104518 23 0.0 0.0 0.00 0.00 0.00 95 1015.0
20260904103016 23 0.0 0.0 0.00 0.00 0.00 95 1014.9
20260904101557 23 0.0 0.0 0.00 0.00 0.00 95 1014.8
20260904100120 23 0.0 0.0 0.00 0.00 0.00 95 1014.8
20260904094538 23 0.0 0.0 0.00 0.00 0.00 95 1014.7
20260904093037 23 0.0 0.0 0.00 0.00 0.00 95 1014.6
20260904091531 23 0.0 0.0 0.00 0.00 0.00 94 1014.7
20260904090017 23 0.0 0.0 0.00 0.00 0.00 95 1014.7
20260904084608 23 0.0 0.0 0.00 0.00 0.00 95 1014.7
20260904083102 24 0.0 0.0 0.00 0.00 0.00 94 1014.7
20260904081540 24 0.0 0.0 0.00 0.00 0.00 94 1014.7
20260904080039 24 0.0 0.0 0.00 0.00 0.00 94 1014.8
20260904074535 24 0.0 0.0 0.00 0.00 0.00 94 1014.8
20260904073021 24 0.0 0.0 0.00 0.00 0.00 94 1014.8
20260904071502 24 0.0 0.0 0.00 0.00 0.00 94 1014.7
20260904070113 25 0.0 0.0 0.00 0.00 0.00 94 1014.7
20260904064558 25 0.0 0.0 0.00 0.00 0.00 94 1014.7
20260904063049 25 0.0 0.0 0.00 0.00 0.00 94 1014.8
20260904061524 25 0.0 0.0 0.00 0.00 0.00 93 1014.8
20260904060025 25 0.0 0.0 0.00 0.00 0.00 93 1014.7
20260904054506 25 0.0 0.0 0.00 0.00 0.00 93 1014.8
20260904053007 25 0.0 0.0 0.00 0.00 0.00 93 1014.9
20260904051548 25 0.0 0.0 0.00 0.00 0.00 93 1014.9
20260904050051 25 0.0 0.0 0.00 0.00 0.00 93 1014.7
20260904044529 25 0.0 0.0 0.00 0.00 0.00 92 1014.8
20260904043028 25 0.0 0.0 0.00 0.00 0.00 92 1014.8
20260904041519 26 0.0 0.0 0.00 0.00 0.00 92 1014.8
20260904040010 26 0.0 0.0 0.00 0.00 0.00 91 1014.9
20260904034553 26 0.0 0.0 0.00 0.00 0.00 91 1015.0
20260904033058 26 0.0 0.0 0.00 0.00 0.00 90 1015.0
20260904031539 26 0.0 0.0 0.00 0.00 0.00 90 1015.0
20260904030037 26 0.0 0.0 0.00 0.00 0.00 89 1015.1
20260904024522 26 0.0 0.0 0.00 0.00 0.00 89 1015.2
20260904023018 27 0.0 0.0 0.00 0.00 0.00 87 1015.2
20260904021602 27 0.0 0.0 0.00 0.00 0.00 87 1015.1
20260904020058 27 0.0 0.0 0.00 0.00 0.00 86 1014.9
20260904014546 27 0.0 0.0 0.00 0.00 0.00 85 1014.7
20260904013045 28 0.0 0.0 0.00 0.00 0.00 83 1014.7
20260904011544 28 0.0 0.0 0.00 0.00 0.00 82 1014.4
20260904010044 28 0.0 0.0 0.00 0.00 0.00 80 1014.4
20260904004544 29 0.0 0.0 0.00 0.00 0.00 78 1014.2
20260904003043 30 0.0 0.0 0.00 0.00 0.00 76 1014.2
20260904001543 30 0.0 0.0 0.00 0.00 0.00 72 1014.1
20260904000042 31 0.0 0.0 0.00 0.00 0.00 71 1014.0
20260903234524 31 0.0 0.0 0.00 0.00 0.00 68 1013.8
20260903233030 32 0.0 0.0 0.00 0.00 0.00 66 1013.7
20260903231507 32 0.0 0.0 0.00 0.00 0.00 67 1013.7
20260903230010 32 0.0 0.0 0.00 0.00 0.00 67 1013.7
20260903224549 33 0.0 0.0 0.00 0.00 0.00 63 1013.6
20260903223048 33 0.0 0.0 0.00 0.00 0.00 61 1013.6
20260903221545 34 0.0 0.0 0.00 0.00 0.00 60 1013.4
20260903220030 35 0.0 0.0 0.00 0.00 0.00 58 1013.3
20260903214512 36 0.0 0.0 0.00 0.00 0.00 51 1013.1
20260903213019 36 0.0 0.0 0.00 0.00 0.00 51 1013.3
20260903211553 36 0.0 0.0 0.00 0.00 0.00 51 1013.3
20260903210054 36 0.0 0.0 0.00 0.00 0.00 53 1013.5
20260903204535 36 0.0 0.0 0.00 0.00 0.00 53 1013.4
20260903203045 36 0.0 0.0 0.00 0.00 0.00 52 1013.7
20260903201513 36 0.0 0.0 0.00 0.00 0.00 50 1013.9
20260903200020 36 0.0 0.0 0.00 0.00 0.00 51 1014.1
20260903194551 36 0.0 0.0 0.00 0.00 0.00 51 1014.4
20260903193049 36 0.0 0.0 0.00 0.00 0.00 52 1014.7
20260903191533 36 0.0 0.0 0.00 0.00 0.00 51 1014.8
20260903190028 35 0.0 0.0 0.00 0.00 0.00 53 1015.0
20260903184509 35 0.0 0.0 0.00 0.00 0.00 53 1015.2
20260903183008 35 0.0 0.0 0.00 0.00 0.00 53 1015.3